ONEWEB-0065, 45164

Orbit data source: Space-Track

ONEWEB-0065, 45164 is a payload satellite owned by One Web (UK) in LEO that was launched on Thu, 06 Feb 2020 UTC via a SOYUZ-2-1B launch vehicle from the Tyuratam Missile And Space Complex (TTMTR). Payload-class satellites include a variety of spacecraft equipped with specific instruments for various scientific and technological missions. These include communications satellites like Starlink; space stations such as the ISS; scientific satellites like the Hubble; Earth observation satellites from companies like Planet Labs, Umbra, and HawkEye 360; GPS; miniature CubeSats for education and research; and military/defense satellites.

Loading next visibility...
Identifier
45164, 2020-008AK
Orbit
LEO
Country
Flag of UKUK
Related business
Manufacturer
One Web
Mission
Operational Commercial Communications
Bus & Motor
ARROW, Unknown motor
Mass
148 kg wet, ~140 kg dry
Launch date (UTC)
2020-02-06 (6 years ago)
Launch vehicle
SOYUZ-2-1B
Launch site
Tyuratam Missile And Space Complex (TTMTR)
Object type
Payload
Rocket body
Debris
Shape & HBR
Trap Box + 2 Pan, 6.7 m
Radar Cross Section
3.464 m², Large (>1 m²)

Expand to show TLE details & history
Last TLE update: 15 hours ago

TLE from 15 hours ago
0 ONEWEB-0065
1 45164U 20008AK  25347.25666446 -.00000096  00000-0 -31077-3 0  9998
2 45164  87.8800  73.3419 0001662 118.1979 241.9317 13.10370178283530
Epoch: 2025-12-13T06:09Z
TLE epoch observation values (Epoch: 2025-12-13T06:09:35.809Z)
Latitude
0.00005°
Longitude
-101.24384°
Altitude
1,225.209 km
Speed
7.242 km/s
True Right ascension
04h 53m 22s
True Declination
0° 00' 00"
Sunlit
Object was in full shadow at epoch
Visualization orbit readout
Latitude
Unknown
Longitude
Unknown
Altitude
Unknown
Speed
Unknown
Apparent Right ascension
Unknown
Apparent Declination
Unknown
Sunlit
N/A
Visualization observer readout
Local Sidereal Time
20:08:18
Azimuth
Unknown
Elevation
Unknown
Doppler factor
Unknown
Orbital elements
Apogee altitude
1,220.11 km
Perigee altitude
1,217.585 km
Semi-major axis
7,596.984 km
Eccentricity
0.00017
Inclination
87.88°
RAAN
73.3419°
Arg. of periapsis
118.1979°
True anomaly
241.9149°
Mean anomaly
241.9317°
Eccentric anomaly
241.9233°
Mean motion
3.27779 °/min
Orbital period
109.83 mins
BSTAR
-0.00031077
Loading maneuver chart data...
Computing Atmospheric mass density...
Loading historical data...
Loading historical data...
Loading historical data...
Loading historical data...
Loading historical data...
Loading historical data...
Loading historical data...

Documentation

Showing up to 5 results
|